Vertical_Velocity
-2 -2 -1 -1 -1 -1 -1 -2 -1 -1 -0 0 0 -0 -1 0 0 -1 -1 -0 -0 0 0 0 0 1 1 -0 0 0 0 0 1 1 2 2 3 4 4 3 3 2 2 1 1 0 -0 -1 -2 -3 -4 -4 -2 -1 -1 0 1 -1 -3 -4 -3 -2 -2 -2 -0 2 4 5 5
-2 -2 -2 -1 -1 -1 -1 -1 -1 -1 -0 -0 1 1 1 1 1 1 0 -0 -0 0 1 0 0 1 2 1 0 0 1 0 0 0 0 1 1 2 2 3 3 3 3 4 4 3 2 1 -0 -1 -3 -3 -2 -1 -1 -1 0 -1 -3 -5 -4 -3 -2 -2 -1 1 3 3 2
-1 -2 -2 -1 -1 -1 -1 -1 -1 -0 -0 -0 0 1 1 1 1 1 1 0 0 0 1 1 1 1 2 2 1 0 0 0 0 0 0 -0 -0 -0 0 1 1 2 4 5 6 5 4 3 2 1 -0 -0 0 0 -0 -0 0 -0 -2 -4 -3 -3 -2 -3 -1 1 2 2 2
-1 -1 -1 -1 -1 -1 -0 0 0 -0 -0 0 0 0 0 -0 0 1 1 1 1 0 0 1 1 1 1 2 2 1 -0 0 0 0 0 -0 -0 -1 -1 -1 -0 0 2 5 6 5 4 4 3 2 0 -0 1 2 2 1 1 -0 -1 -2 -1 -1 -1 -2 -1 1 2 1 1
-1 -1 -0 0 -0 -1 -1 0 0 0 -0 -0 1 0 -1 -1 -0 0 0 1 0 0 0 1 1 1 1 1 2 1 1 0 0 0 0 0 -0 -0 -0 -1 -2 -1 -0 2 4 5 6 6 6 4 1 -0 -1 0 1 1 2 1 -0 -0 1 1 1 -0 -0 0 1 1 1
-1 -1 -1 -1 -1 -1 -1 -1 -0 -0 -0 -0 0 -0 -1 -1 -0 0 0 0 0 0 0 0 0 0 0 0 1 1 1 1 1 1 1 1 0 0 0 -0 -1 -1 -1 -1 0 3 5 7 9 6 2 -0 -1 -2 -2 -1 1 1 1 0 1 2 3 2 0 1 1 -0 0
-1 -1 -1 -2 -1 -1 -1 -2 -1 -1 -1 -1 -0 -0 -1 -1 -0 0 -0 -0 0 0 0 0 0 -0 -0 0 1 1 1 1 1 1 1 2 1 1 1 1 0 -0 -1 -1 -1 -1 -0 1 6 7 5 1 -0 -1 -1 -1 0 1 1 -1 -1 1 4 3 1 1 1 -0 -1
-0 -0 -1 -1 -1 -1 -2 -2 -1 -1 -1 -1 -1 -0 -0 0 0 0 -0 -0 0 0 1 1 0 0 0 1 1 1 1 2 2 2 2 2 2 2 1 1 1 1 -0 -1 -1 -1 -2 -2 0 3 5 4 1 -0 -1 1 2 3 1 -1 -2 0 3 4 3 3 2 1 -0
0 -0 0 0 -0 -1 -1 -1 -1 -1 -1 -1 -1 -1 -0 0 0 0 -0 -0 -0 0 1 1 1 1 1 1 1 1 1 2 2 2 2 2 2 2 1 1 1 1 -0 -1 -1 -1 -2 -2 -1 -0 1 4 2 0 -0 1 4 4 2 0 -0 1 2 4 6 6 5 3 2
-0 0 1 2 1 1 0 0 -1 -1 -1 -1 -1 -1 -1 -0 -0 -0 -0 -0 0 0 0 0 1 1 1 1 1 1 1 1 1 2 2 2 2 2 2 1 1 1 0 -1 -1 -1 -2 -2 -2 -2 -2 -0 0 0 -0 0 3 4 3 2 2 2 2 2 5 7 8 7 6
-1 -0 1 2 2 2 1 1 0 -0 -0 -0 -1 -1 -1 -1 -0 -0 -0 -0 0 0 -0 -0 1 2 1 1 1 1 1 1 1 1 1 1 1 1 1 1 1 1 1 -0 -1 -1 -2 -2 -2 -3 -3 -3 -2 -2 -2 -2 -0 1 2 2 3 4 3 2 4 5 7 7 6
-1 -1 -0 0 1 2 2 2 1 1 1 0 -0 -0 -0 -0 -0 -0 0 0 0 0 -0 -0 1 2 1 1 1 1 1 1 1 1 1 1 1 1 1 1 1 1 1 1 -0 -1 -1 -2 -2 -2 -3 -4 -4 -4 -3 -4 -3 -2 -1 0 2 3 3 2 4 4 5 6 6
-0 -0 -0 -0 0 1 1 1 1 1 1 1 1 0 1 0 -0 0 1 1 0 0 0 1 1 1 2 1 1 1 1 1 1 1 1 1 1 2 2 2 2 2 2 1 1 0 -0 -2 -2 -2 -3 -4 -4 -4 -4 -4 -4 -5 -4 -2 -1 1 2 3 5 5 4 4 5
-0 -0 -0 -0 0 0 0 1 1 1 1 2 1 1 1 2 1 1 1 2 1 1 1 2 1 1 1 2 2 1 1 1 2 2 2 2 2 2 3 3 3 3 2 2 2 2 1 0 -1 -2 -2 -3 -4 -4 -4 -4 -4 -5 -5 -4 -3 -2 -1 1 4 5 5 4 4
-0 -0 -0 0 0 0 0 0 0 1 1 2 1 1 2 2 1 1 2 2 1 1 1 3 3 2 2 3 3 3 2 2 2 2 3 3 3 3 4 4 4 3 3 3 2 2 2 2 1 -0 -1 -2 -3 -3 -4 -3 -4 -4 -5 -4 -4 -3 -2 -0 2 4 5 4 4
-0 -0 -0 1 1 0 0 0 0 1 1 2 1 2 2 2 2 2 2 2 2 2 2 2 3 3 4 3 3 3 4 3 2 3 3 4 4 4 4 4 4 4 4 3 3 3 2 2 2 1 0 -1 -2 -3 -3 -3 -3 -3 -3 -4 -3 -3 -2 -1 0 2 3 4 4
0 -0 -0 1 1 1 0 0 1 1 1 2 2 2 2 2 2 2 2 2 2 2 2 2 2 3 4 4 3 3 4 4 4 3 3 4 4 4 5 5 4 4 4 4 4 3 3 2 2 1 0 -1 -2 -2 -2 -2 -2 -2 -2 -2 -1 -1 -1 -0 1 1 2 3 3
0 0 0 1 1 1 1 1 1 1 1 2 2 2 2 2 3 3 3 2 2 2 3 2 1 2 3 4 4 3 3 4 4 4 4 4 4 5 5 5 5 5 5 5 4 3 3 2 1 1 -0 -1 -2 -3 -3 -2 -2 -2 -1 -0 0 0 1 1 2 2 2 2 2
0 1 1 1 1 1 1 1 1 2 2 2 3 3 3 3 3 4 4 3 2 2 3 3 2 2 2 3 4 3 3 3 4 4 4 4 4 5 5 5 5 6 6 6 5 4 3 2 1 0 -0 -1 -2 -3 -4 -4 -3 -2 -1 -0 0 1 2 3 3 3 3 2 2
-0 1 1 1 1 1 1 1 1 2 2 3 3 4 4 3 3 4 4 4 3 3 3 4 3 3 2 3 3 3 3 2 4 4 4 4 4 5 5 5 6 6 6 7 6 5 4 3 2 1 -0 -1 -2 -3 -4 -4 -4 -3 -2 -1 0 1 2 3 3 4 3 3 2
-0 0 1 1 1 1 1 1 1 2 3 3 3 4 4 4 4 4 4 4 4 4 4 4 4 4 4 3 4 4 4 3 4 4 4 4 4 4 5 5 6 6 6 7 7 6 5 4 3 2 1 -0 -2 -2 -3 -3 -3 -2 -1 -0 1 2 2 3 4 4 4 3 2
-1 0 1 1 1 1 1 1 1 2 2 3 3 3 4 4 4 4 4 4 5 5 4 4 4 4 4 4 4 4 4 4 4 5 5 5 5 4 4 5 5 6 6 6 6 6 6 5 4 3 2 1 -0 -1 -2 -2 -1 -1 0 1 2 3 3 4 4 4 4 3 3
-1 0 1 1 2 2 2 2 2 2 2 2 2 3 3 4 4 4 5 5 5 5 4 4 4 4 4 4 4 4 4 5 4 5 5 6 6 5 5 4 5 5 5 5 5 6 5 4 3 2 1 1 0 -0 -1 -0 1 1 2 2 3 4 4 5 5 5 4 4 3
-1 -0 0 0 1 2 2 2 2 2 2 2 2 3 3 4 4 4 5 5 5 5 5 5 4 4 4 4 4 3 3 4 4 4 4 5 6 6 5 5 5 5 5 5 5 5 4 3 2 1 0 -0 -0 -0 0 1 2 3 3 4 4 5 5 6 6 6 6 5 4
-1 -0 -0 -0 0 1 1 2 2 2 2 1 2 2 3 3 3 4 4 5 5 5 5 5 5 4 4 4 4 3 3 2 3 3 3 3 4 4 5 5 4 4 5 5 5 4 3 2 1 -0 -1 -2 -2 -2 -1 1 2 3 4 5 5 5 5 6 6 6 6 6 6
-1 -0 -0 -1 -0 0 1 0 0 1 1 1 1 2 2 2 2 3 3 4 4 4 4 5 4 4 4 4 4 4 3 2 1 2 2 2 2 3 3 3 4 4 4 4 4 4 3 2 1 -1 -2 -4 -4 -4 -3 -1 1 3 4 5 5 5 5 5 5 5 6 6 7
-0 -0 -1 -1 0 0 0 -0 -0 -0 0 -0 0 1 1 0 1 1 1 1 1 2 2 3 3 3 3 3 3 3 3 2 1 1 1 1 1 2 2 2 2 2 3 3 3 3 2 2 1 -0 -2 -4 -5 -6 -5 -4 -2 0 2 4 4 4 3 3 2 3 4 5 5
-0 -1 -1 -0 0 0 -0 -0 -0 -0 -0 -1 -0 -0 -0 -0 -0 -0 -1 -1 -1 -0 0 0 0 1 1 2 2 2 2 2 2 1 1 1 1 1 1 2 2 2 2 2 3 2 1 1 1 -0 -1 -3 -5 -6 -6 -6 -4 -2 -0 1 2 2 1 1 -0 -0 0 2 3
-1 -1 -0 -0 0 -0 -0 -0 -0 -0 -1 -1 -0 -0 -0 -1 -1 -2 -2 -2 -2 -2 -2 -1 -1 -1 -0 0 -0 0 0 1 1 1 2 2 2 1 2 2 3 3 3 3 3 3 2 1 1 0 -1 -2 -4 -5 -5 -5 -4 -3 -2 -1 -1 -0 -0 -1 -2 -2 -2 -1 -0
-1 -1 -0 -0 -0 -0 -0 -0 -0 -0 -0 -0 -0 -0 -0 -1 -2 -2 -2 -2 -2 -2 -2 -2 -1 -1 -1 -2 -1 -0 0 -1 -1 -0 1 2 1 1 2 2 4 4 4 4 4 4 3 2 2 1 0 -1 -2 -3 -4 -4 -3 -3 -3 -2 -2 -2 -2 -2 -2 -2 -3 -3 -2
-1 -0 -0 0 -0 -0 -0 -0 -0 0 0 0 -0 -0 -1 -1 -2 -2 -2 -2 -2 -2 -2 -2 -0 0 -0 -2 -1 -1 -0 -1 -1 -1 -1 0 1 1 1 2 3 4 4 4 4 4 3 3 2 1 0 -1 -2 -2 -2 -2 -2 -2 -2 -2 -2 -2 -2 -3 -3 -3 -3 -3 -3
0 -0 -0 0 0 -0 -1 -0 0 1 1 0 0 -0 -1 -1 -1 -2 -2 -2 -1 -1 -1 -1 -1 -0 0 -0 -0 -0 0 0 0 0 -0 -0 -0 0 1 1 2 3 3 4 4 3 2 2 1 0 -1 -2 -1 -1 -1 -1 -1 -1 -2 -2 -2 -2 -2 -3 -4 -4 -4 -4 -4
1 0 0 0 0 0 -0 -0 0 0 1 1 0 -0 -1 -1 -1 -2 -2 -3 -2 -1 -0 -1 -1 -0 0 0 0 0 1 1 1 1 1 1 0 1 1 2 1 2 3 4 4 3 2 1 0 -1 -2 -2 -2 -1 -1 -0 -1 -1 -1 -1 -2 -2 -2 -3 -4 -5 -5 -5 -4
1 1 1 0 0 0 0 0 0 0 1 1 0 -0 -1 -1 -1 -1 -2 -3 -2 -1 -0 -0 -1 -0 -0 -0 -1 -0 1 1 0 1 1 2 2 2 2 2 1 2 3 5 4 3 1 0 -0 -1 -2 -3 -2 -1 -1 -0 -1 -1 -2 -2 -2 -2 -2 -3 -4 -4 -5 -4 -4
0 1 1 0 -0 -0 0 1 0 0 0 1 0 -0 -1 -1 -1 -1 -1 -2 -2 -1 -1 -1 -1 -0 0 -0 -2 -1 -0 1 1 0 0 1 2 3 3 3 2 2 4 6 5 4 2 0 -0 -1 -2 -3 -2 -1 -1 -1 -1 -1 -2 -2 -2 -2 -2 -4 -4 -4 -4 -3 -2
0 0 1 1 -0 -0 0 1 1 0 0 -0 -0 -0 -0 -0 -1 -1 -2 -1 -0 0 -0 -1 -1 0 1 0 -2 -2 -1 0 1 1 1 0 1 3 4 4 3 3 4 6 6 5 3 1 -0 -1 -1 -2 -2 -2 -2 -1 -1 -2 -2 -2 -2 -2 -3 -4 -3 -3 -2 -2 -1
-0 -1 -0 0 0 -0 -0 0 1 1 0 -0 -1 -0 0 1 1 -0 -1 -2 -0 1 1 -1 -1 0 1 1 -1 -1 -1 -1 0 2 2 1 0 1 3 4 4 3 4 6 8 7 4 1 0 -0 -1 -1 -2 -2 -2 -2 -2 -1 -1 -2 -2 -2 -3 -4 -3 -2 -1 0 0
-1 -1 -1 -0 -0 -0 -1 -1 -0 0 0 -0 -0 -0 -0 0 1 1 -0 -2 -1 1 1 -0 -1 -0 0 -0 -0 -0 -0 -1 -0 1 2 2 -0 -0 1 4 4 4 3 5 8 8 6 3 1 0 -0 -1 -2 -3 -3 -3 -2 -1 -2 -2 -2 -2 -3 -3 -2 -1 -0 1 1
-1 -1 -2 -1 -1 -1 -2 -1 -1 -1 -1 -1 0 0 -0 -0 1 1 0 -1 -1 -0 0 -0 -0 -1 -1 -1 -0 0 0 -1 -1 0 1 2 0 -1 -1 2 3 3 3 4 6 7 6 5 3 1 -0 -1 -3 -4 -4 -3 -2 -2 -2 -3 -3 -2 -2 -3 -2 -1 0 1 1
-1 -2 -2 -2 -3 -3 -3 -2 -2 -2 -3 -2 -0 0 -0 -1 -0 0 0 -0 -0 -1 -1 -1 -0 -1 -1 -2 -1 -0 0 -0 -0 0 1 2 1 -1 -1 -0 1 2 2 2 4 6 7 6 4 3 1 -1 -2 -4 -4 -4 -3 -3 -4 -5 -4 -3 -2 -2 -2 -1 0 1 1
-2 -3 -3 -3 -4 -4 -4 -2 -2 -2 -3 -2 -1 -0 -0 -1 -1 -0 -0 -0 -0 -1 -1 -2 -1 -1 -1 -2 -1 -1 -0 0 -0 -0 0 1 1 0 -1 -1 -0 1 1 1 3 5 6 7 6 4 2 0 -1 -3 -4 -4 -4 -4 -5 -6 -5 -4 -3 -3 -2 -1 -0 1 1
Height
5757 5756 5755 5754 5752 5751 5749 5748 5746 5745 5743 5742 5740 5739 5737 5736 5735 5733 5731 5730 5728 5727 5725 5724 5722 5721 5719 5717 5716 5715 5713 5712 5710 5709 5708 5707 5705 5704 5703 5702 5700 5699 5697 5696 5695 5693 5692 5690 5688 5687 5685 5684 5683 5682 5681 5680 5679 5677 5675 5674 5673 5671 5670 5669 5667 5666 5665 5664 5662
5754 5752 5751 5750 5748 5747 5745 5744 5742 5741 5739 5738 5736 5735 5733 5732 5730 5729 5727 5726 5724 5722 5721 5719 5718 5716 5715 5713 5711 5710 5708 5707 5705 5704 5703 5702 5700 5699 5698 5697 5696 5694 5693 5693 5691 5690 5688 5686 5684 5682 5681 5680 5679 5678 5676 5675 5674 5672 5671 5670 5668 5667 5665 5663 5662 5661 5660 5658 5657
5750 5748 5747 5745 5744 5742 5741 5740 5738 5736 5735 5733 5732 5730 5729 5727 5726 5724 5723 5721 5719 5718 5716 5715 5713 5711 5710 5708 5706 5705 5704 5702 5701 5700 5698 5697 5696 5695 5693 5692 5690 5690 5689 5688 5686 5685 5684 5683 5682 5680 5679 5676 5675 5674 5672 5671 5670 5668 5666 5665 5664 5662 5660 5659 5658 5656 5655 5653 5652
5745 5744 5742 5741 5740 5738 5736 5735 5733 5732 5730 5729 5727 5725 5724 5723 5721 5720 5718 5716 5715 5713 5711 5710 5708 5707 5705 5704 5702 5700 5699 5698 5696 5695 5693 5692 5691 5690 5688 5687 5685 5685 5684 5683 5681 5680 5679 5679 5677 5676 5675 5674 5672 5670 5668 5667 5665 5663 5662 5661 5659 5658 5656 5654 5653 5651 5650 5648 5647
5741 5740 5738 5736 5735 5733 5732 5730 5729 5727 5725 5724 5722 5720 5719 5718 5716 5714 5713 5711 5710 5708 5706 5705 5703 5702 5700 5699 5698 5696 5695 5693 5691 5690 5689 5687 5686 5685 5683 5682 5680 5680 5678 5677 5677 5676 5675 5674 5673 5670 5668 5667 5667 5666 5665 5662 5660 5658 5657 5656 5655 5653 5651 5650 5648 5646 5645 5643 5642
5737 5735 5733 5732 5730 5728 5727 5725 5724 5722 5720 5719 5717 5716 5714 5712 5711 5709 5708 5706 5705 5703 5701 5700 5699 5697 5696 5695 5693 5691 5690 5689 5687 5685 5684 5683 5681 5680 5679 5677 5675 5674 5673 5672 5670 5669 5668 5668 5666 5664 5662 5660 5660 5658 5657 5656 5655 5653 5652 5650 5649 5647 5646 5644 5642 5641 5639 5638 5636
5732 5730 5729 5727 5725 5724 5722 5720 5719 5717 5715 5714 5712 5711 5709 5708 5706 5705 5703 5701 5700 5698 5697 5695 5694 5692 5691 5690 5688 5687 5685 5684 5682 5681 5680 5678 5676 5675 5674 5672 5671 5669 5668 5667 5665 5664 5662 5661 5660 5659 5656 5655 5653 5652 5650 5649 5648 5647 5645 5643 5641 5640 5640 5638 5636 5634 5632 5631 5630
5728 5726 5725 5723 5721 5719 5718 5716 5714 5712 5711 5709 5708 5706 5705 5703 5701 5700 5698 5697 5695 5694 5692 5691 5689 5688 5686 5685 5683 5682 5680 5679 5677 5676 5675 5673 5672 5670 5669 5667 5665 5664 5663 5661 5660 5658 5657 5655 5654 5653 5652 5650 5648 5646 5645 5645 5643 5641 5639 5637 5635 5633 5632 5630 5629 5627 5625 5624 5623
5724 5722 5720 5719 5717 5715 5713 5711 5710 5708 5706 5705 5703 5702 5700 5699 5697 5695 5694 5693 5691 5690 5688 5686 5685 5683 5681 5680 5678 5677 5675 5674 5672 5671 5670 5668 5667 5665 5663 5662 5660 5659 5657 5655 5654 5652 5651 5650 5648 5647 5645 5644 5643 5642 5641 5640 5638 5636 5634 5632 5630 5629 5627 5625 5623 5621 5619 5617 5616
5720 5718 5717 5715 5713 5711 5710 5708 5706 5704 5702 5701 5699 5697 5696 5694 5693 5691 5690 5688 5687 5685 5683 5682 5680 5679 5677 5675 5673 5672 5670 5669 5667 5666 5664 5663 5661 5660 5658 5656 5655 5653 5651 5650 5648 5647 5645 5643 5642 5640 5639 5638 5636 5635 5634 5633 5632 5630 5629 5627 5625 5624 5622 5621 5620 5617 5615 5613 5611
5716 5714 5713 5711 5710 5708 5706 5704 5702 5700 5699 5697 5695 5693 5692 5690 5689 5687 5685 5684 5682 5680 5679 5677 5676 5674 5672 5670 5669 5667 5665 5664 5662 5660 5659 5657 5656 5654 5652 5651 5649 5647 5646 5644 5642 5640 5639 5637 5635 5634 5633 5631 5630 5628 5627 5625 5625 5623 5622 5620 5620 5619 5617 5615 5615 5613 5611 5608 5606
5711 5710 5708 5707 5705 5704 5702 5700 5698 5697 5695 5693 5691 5689 5688 5686 5684 5682 5681 5679 5677 5676 5674 5672 5671 5669 5667 5665 5664 5662 5660 5658 5657 5655 5654 5652 5650 5649 5647 5645 5643 5641 5640 5638 5636 5635 5633 5631 5629 5628 5626 5625 5624 5622 5620 5619 5617 5616 5614 5613 5612 5611 5610 5608 5607 5606 5605 5602 5601
5707 5705 5704 5702 5700 5699 5697 5696 5694 5692 5690 5689 5687 5685 5683 5681 5680 5678 5676 5674 5673 5671 5669 5667 5665 5664 5662 5660 5658 5657 5655 5653 5652 5650 5648 5646 5645 5643 5641 5639 5637 5636 5634 5632 5631 5629 5627 5625 5624 5622 5620 5619 5617 5616 5615 5613 5611 5609 5608 5606 5605 5603 5602 5601 5600 5599 5598 5596 5595
5702 5700 5699 5697 5695 5694 5692 5690 5689 5687 5685 5684 5682 5680 5678 5676 5675 5673 5671 5669 5667 5666 5664 5662 5660 5659 5657 5655 5653 5651 5650 5648 5646 5645 5643 5641 5639 5637 5635 5634 5631 5630 5628 5626 5625 5623 5621 5620 5618 5616 5615 5613 5611 5610 5609 5607 5605 5603 5602 5600 5599 5597 5596 5595 5594 5593 5591 5590 5589
5697 5695 5694 5692 5690 5689 5687 5685 5684 5682 5680 5678 5676 5675 5673 5671 5669 5667 5665 5664 5662 5660 5659 5657 5655 5653 5651 5650 5648 5646 5644 5642 5640 5639 5637 5635 5633 5631 5630 5628 5626 5624 5622 5620 5619 5617 5616 5614 5612 5610 5609 5607 5606 5605 5603 5601 5600 5598 5596 5595 5593 5592 5590 5589 5588 5586 5585 5584 5582
5692 5690 5689 5687 5685 5684 5682 5680 5678 5676 5675 5673 5671 5669 5667 5665 5664 5662 5660 5658 5656 5654 5653 5651 5650 5648 5646 5644 5642 5640 5638 5636 5635 5633 5631 5630 5628 5626 5624 5622 5620 5618 5616 5615 5613 5611 5610 5608 5606 5605 5603 5601 5600 5599 5597 5596 5594 5592 5590 5589 5587 5585 5584 5583 5582 5580 5579 5577 5576
5688 5686 5684 5682 5680 5679 5677 5675 5673 5671 5669 5667 5665 5664 5662 5660 5658 5656 5655 5652 5650 5649 5647 5645 5644 5642 5640 5638 5636 5635 5633 5631 5629 5627 5625 5624 5622 5620 5618 5616 5615 5613 5611 5609 5607 5605 5604 5602 5600 5598 5596 5595 5593 5592 5591 5590 5588 5586 5585 5583 5581 5580 5579 5577 5576 5575 5573 5571 5570
5683 5681 5679 5677 5675 5674 5672 5670 5668 5666 5664 5663 5661 5659 5657 5655 5653 5651 5649 5647 5645 5643 5641 5640 5638 5636 5634 5633 5631 5629 5627 5625 5623 5621 5620 5618 5616 5614 5613 5611 5609 5607 5605 5603 5601 5599 5598 5596 5594 5592 5590 5589 5587 5585 5584 5583 5582 5580 5579 5577 5576 5575 5573 5572 5570 5569 5567 5566 5565
5678 5676 5674 5672 5670 5668 5666 5665 5663 5661 5659 5657 5656 5654 5652 5650 5648 5646 5644 5642 5640 5638 5636 5634 5632 5630 5629 5627 5625 5623 5621 5620 5618 5616 5614 5612 5610 5609 5607 5605 5603 5601 5600 5598 5595 5594 5591 5590 5588 5586 5584 5582 5581 5579 5578 5577 5575 5574 5573 5571 5570 5569 5568 5566 5565 5563 5562 5560 5559
5673 5671 5669 5667 5665 5663 5661 5659 5658 5656 5654 5652 5651 5649 5647 5645 5643 5641 5639 5637 5635 5633 5631 5629 5627 5625 5623 5621 5620 5618 5615 5614 5612 5610 5608 5606 5605 5603 5601 5600 5598 5596 5594 5592 5590 5588 5586 5584 5582 5580 5578 5576 5575 5573 5572 5571 5570 5568 5567 5566 5565 5564 5562 5561 5560 5558 5557 5555 5554
5667 5665 5664 5661 5660 5658 5656 5654 5652 5650 5649 5647 5645 5644 5642 5640 5638 5636 5634 5632 5630 5628 5625 5624 5622 5620 5618 5616 5614 5613 5610 5609 5607 5605 5603 5601 5600 5598 5596 5594 5592 5590 5589 5587 5585 5583 5580 5578 5576 5574 5572 5571 5569 5568 5566 5565 5564 5563 5561 5560 5559 5558 5557 5556 5554 5553 5552 5550 5549
5662 5660 5658 5656 5655 5652 5650 5649 5647 5645 5644 5642 5640 5638 5637 5635 5633 5631 5629 5627 5625 5622 5620 5618 5616 5615 5613 5611 5609 5607 5605 5603 5602 5600 5598 5596 5594 5592 5590 5589 5587 5585 5583 5581 5579 5577 5575 5573 5570 5569 5567 5565 5563 5562 5561 5560 5558 5557 5556 5555 5554 5553 5552 5550 5549 5548 5546 5545 5543
5656 5655 5653 5651 5649 5647 5645 5643 5641 5640 5638 5636 5634 5633 5631 5629 5627 5625 5623 5621 5619 5617 5615 5613 5611 5609 5607 5605 5603 5601 5600 5598 5596 5594 5593 5591 5589 5587 5585 5583 5581 5580 5578 5576 5574 5571 5569 5567 5565 5562 5561 5559 5558 5556 5555 5554 5553 5552 5551 5550 5549 5548 5547 5545 5544 5543 5541 5540 5538
5650 5649 5647 5645 5643 5641 5640 5638 5636 5634 5632 5630 5629 5627 5625 5623 5621 5619 5617 5615 5613 5611 5610 5607 5605 5603 5601 5600 5598 5595 5594 5592 5590 5589 5587 5585 5583 5581 5580 5578 5576 5574 5572 5570 5568 5565 5563 5560 5558 5556 5555 5553 5552 5550 5550 5549 5548 5546 5545 5544 5543 5542 5541 5540 5539 5538 5536 5535 5533
5644 5642 5640 5639 5637 5635 5633 5631 5630 5628 5626 5624 5622 5620 5619 5616 5615 5613 5611 5609 5607 5606 5604 5602 5600 5598 5596 5594 5592 5590 5588 5586 5585 5583 5581 5580 5578 5576 5574 5572 5570 5568 5566 5565 5562 5560 5557 5555 5552 5550 5548 5547 5546 5545 5544 5543 5542 5541 5540 5539 5538 5537 5536 5535 5534 5533 5531 5530 5528
5638 5636 5634 5632 5630 5628 5627 5625 5623 5621 5620 5617 5615 5614 5612 5610 5608 5606 5605 5603 5601 5600 5598 5596 5594 5592 5590 5589 5587 5585 5583 5581 5579 5578 5576 5574 5572 5570 5568 5566 5565 5562 5560 5559 5556 5554 5551 5549 5546 5544 5542 5540 5539 5539 5538 5537 5536 5536 5535 5534 5533 5531 5530 5529 5528 5527 5526 5525 5523
5631 5629 5627 5625 5624 5622 5620 5618 5616 5615 5612 5610 5609 5607 5605 5603 5601 5600 5598 5596 5595 5593 5591 5590 5588 5586 5585 5583 5582 5580 5578 5576 5574 5572 5570 5569 5567 5565 5563 5561 5559 5557 5555 5553 5550 5548 5545 5543 5541 5538 5536 5534 5533 5532 5531 5531 5530 5530 5529 5528 5527 5526 5524 5523 5522 5521 5520 5519 5518
5625 5622 5620 5619 5617 5615 5613 5611 5610 5608 5605 5604 5602 5600 5598 5596 5595 5593 5591 5590 5588 5587 5585 5584 5582 5580 5579 5577 5576 5574 5573 5571 5569 5567 5565 5563 5561 5560 5558 5555 5554 5551 5550 5547 5545 5542 5540 5537 5535 5533 5530 5528 5527 5526 5525 5525 5524 5524 5524 5523 5522 5520 5519 5517 5516 5515 5514 5513 5512
5618 5616 5614 5612 5610 5609 5607 5605 5603 5601 5599 5597 5595 5594 5592 5590 5588 5587 5585 5584 5582 5580 5579 5577 5575 5574 5573 5571 5570 5568 5566 5565 5563 5561 5560 5558 5556 5554 5552 5550 5548 5546 5544 5542 5540 5537 5534 5532 5530 5527 5525 5523 5521 5520 5519 5519 5519 5518 5518 5517 5516 5515 5514 5512 5511 5510 5508 5507 5506
5611 5610 5608 5606 5604 5602 5600 5599 5597 5595 5593 5591 5589 5587 5585 5584 5582 5580 5579 5577 5576 5574 5572 5570 5569 5568 5566 5565 5563 5561 5560 5558 5556 5555 5553 5551 5550 5548 5546 5545 5543 5540 5538 5536 5534 5531 5529 5526 5524 5522 5520 5518 5516 5515 5514 5514 5513 5512 5512 5511 5510 5509 5508 5506 5505 5504 5503 5501 5500
5605 5603 5601 5600 5598 5596 5594 5593 5590 5589 5587 5585 5583 5581 5580 5578 5576 5574 5573 5571 5569 5567 5566 5564 5563 5561 5560 5558 5556 5555 5553 5551 5550 5548 5546 5545 5543 5541 5540 5538 5536 5535 5532 5530 5528 5525 5523 5520 5518 5516 5514 5512 5511 5510 5509 5508 5507 5507 5506 5505 5505 5503 5502 5501 5500 5498 5497 5495 5494
5598 5596 5595 5593 5591 5590 5588 5586 5584 5582 5580 5579 5577 5575 5574 5572 5570 5568 5566 5564 5563 5561 5559 5558 5556 5555 5553 5551 5550 5548 5546 5545 5543 5541 5540 5538 5536 5535 5533 5532 5530 5528 5526 5524 5521 5519 5516 5514 5512 5510 5508 5506 5505 5505 5504 5503 5502 5501 5500 5500 5499 5498 5496 5495 5494 5492 5491 5490 5488
5592 5590 5589 5587 5585 5583 5582 5580 5578 5576 5575 5573 5571 5569 5567 5565 5564 5561 5560 5558 5556 5555 5553 5551 5550 5548 5546 5545 5543 5541 5540 5538 5536 5535 5533 5531 5529 5528 5526 5525 5523 5521 5520 5518 5515 5512 5510 5508 5505 5503 5502 5500 5500 5499 5498 5497 5496 5495 5494 5494 5493 5492 5490 5489 5488 5487 5485 5484 5482
5586 5584 5582 5580 5579 5577 5575 5574 5572 5570 5568 5567 5565 5563 5561 5559 5557 5555 5553 5551 5550 5548 5547 5545 5543 5542 5540 5538 5537 5535 5534 5532 5530 5528 5526 5525 5523 5521 5520 5519 5517 5515 5513 5511 5509 5506 5504 5501 5499 5497 5495 5495 5494 5493 5492 5491 5490 5489 5489 5488 5487 5486 5485 5484 5482 5481 5480 5478 5476
5580 5578 5576 5574 5572 5571 5569 5567 5565 5564 5562 5560 5558 5556 5555 5553 5551 5549 5547 5545 5544 5542 5540 5539 5537 5536 5534 5532 5530 5529 5527 5526 5524 5522 5520 5518 5517 5515 5514 5512 5510 5509 5507 5505 5503 5500 5497 5495 5493 5491 5490 5489 5488 5487 5486 5485 5484 5483 5483 5482 5481 5480 5479 5478 5477 5475 5474 5473 5471
5574 5572 5570 5568 5566 5564 5563 5561 5559 5557 5555 5554 5552 5550 5549 5547 5545 5543 5540 5539 5537 5536 5534 5532 5531 5530 5528 5526 5524 5523 5521 5520 5518 5516 5514 5512 5511 5509 5508 5506 5505 5503 5501 5500 5497 5494 5491 5489 5487 5485 5484 5483 5482 5481 5480 5479 5478 5477 5476 5476 5475 5474 5473 5472 5471 5470 5469 5467 5465
5568 5565 5564 5562 5560 5558 5556 5555 5553 5551 5549 5547 5545 5544 5542 5540 5538 5536 5534 5533 5531 5530 5528 5526 5525 5524 5522 5520 5519 5517 5515 5514 5512 5510 5509 5506 5505 5503 5502 5500 5499 5497 5496 5494 5492 5489 5486 5483 5481 5479 5478 5477 5475 5475 5474 5473 5472 5471 5470 5469 5468 5467 5466 5465 5465 5464 5463 5461 5459
5561 5559 5557 5555 5553 5551 5550 5548 5546 5545 5543 5541 5540 5538 5536 5534 5532 5530 5528 5526 5525 5524 5522 5520 5519 5518 5516 5515 5513 5511 5510 5508 5506 5505 5503 5501 5499 5497 5496 5495 5493 5492 5490 5489 5487 5484 5480 5478 5475 5473 5472 5470 5469 5468 5467 5466 5465 5464 5463 5463 5462 5461 5460 5459 5459 5458 5457 5455 5453
5555 5553 5551 5549 5547 5545 5544 5542 5540 5539 5537 5535 5533 5531 5529 5528 5526 5524 5522 5520 5518 5517 5515 5514 5513 5511 5510 5509 5507 5506 5504 5502 5501 5499 5497 5495 5493 5491 5490 5489 5488 5486 5484 5483 5481 5478 5475 5472 5470 5468 5465 5464 5462 5461 5460 5459 5458 5457 5456 5455 5455 5455 5454 5453 5452 5451 5450 5449 5447
5549 5547 5545 5543 5541 5539 5538 5536 5534 5532 5530 5529 5527 5525 5523 5521 5519 5518 5516 5514 5512 5510 5509 5508 5507 5505 5504 5502 5501 5500 5498 5497 5495 5493 5491 5489 5487 5485 5484 5483 5482 5480 5478 5477 5475 5473 5470 5467 5464 5462 5459 5457 5455 5454 5453 5452 5451 5450 5449 5448 5448 5447 5447 5446 5445 5445 5444 5443 5441
5543 5540 5539 5537 5535 5533 5531 5530 5528 5526 5524 5523 5521 5519 5516 5515 5513 5511 5510 5508 5506 5505 5503 5502 5500 5499 5498 5496 5495 5493 5492 5490 5489 5487 5485 5483 5481 5479 5477 5476 5475 5474 5472 5470 5468 5466 5464 5461 5458 5455 5453 5450 5449 5447 5445 5444 5443 5442 5441 5440 5440 5440 5439 5439 5439 5438 5438 5436 5435